Location: Riverside Cemetery
(38.3047°N, 99.7773°W)
Time: 03:00:03
(UTC+00:00)

NOSS 3-3 (C) - Pass Details

Date: 19 September 2020
Orbit: 837 x 1375 km, 63.4° (Epoch: 13 October)

Event Time Altitude Azimuth Distance (km) Brightness Sun altitude
Exits shadow 09:44:56 43° 134° (SE) 1,229 4.5 -30.8°
Maximum altitude 09:45:36 45° 115° (ESE) 1,207 4.6 -30.6°
Drops below altitude 10° 09:51:29 10° 44° (NE) 2,712 7.2 -29.6°
Sets 09:54:17 0° 39° (NE) 3,743 8.0 -29.1°
